Regional Weather Roundup
Issued by NWS

Home | Current Version | Previous Version | Text Only | Print | Product List | Glossary Off
Versions: 1 2 3 4 5 6 7 8 9 10 11 12 13 14 15 16 17 18 19 20 21 22 23 24 25 26 27 28 29 30 31 32 33 34 35 36 37 38 39 40 41 42 43 44 45 46 47 48 49 50

793
ASUS43 KTOP 271608
RWRKS

WEATHER ROUNDUP FOR KANSAS
NATIONAL WEATHER SERVICE GOODLAND KS
1100 AM CDT THU JUL 27 2017

NOTE:  "FAIR" INDICATES FEW OR NO CLOUDS BELOW 12,000 FEET WITH NO
SIGNIFICANT WEATHER AND/OR OBSTRUCTIONS TO VISIBILITY.

KSZ001>006-013>018-027>032-041>047-271700-
NORTHWEST KANSAS

CITY           SKY/WX    TMP DP  RH WIND       PRES   REMARKS
GOODLAND       CLOUDY    73  66  78 SE7       30.20S
HAYS           CLOUDY    77  67  71 NE15      30.10S
HILL CITY      CLOUDY    79  68  69 E12       30.13F
RUSSELL        CLOUDY    76  69  79 NE13      30.08S
$$

KSZ061>065-074>080-084>089-271700-
SOUTHWEST KANSAS

CITY           SKY/WX    TMP DP  RH WIND       PRES   REMARKS
DODGE CITY     LGT RAIN  72  70  93 N12       30.10S FOG
ELKHART          N/A     74  58  57 NE8         N/A
GARDEN CITY    LGT RAIN  71  68  90 NE9       30.14R
GREAT BEND     CLOUDY    76  71  85 N17       30.07F
LIBERAL        CLOUDY    74  70  87 NE12      30.14R
PRATT          CLOUDY    73  70  89 N16G23    30.04S
$$

KSZ066>073-081>083-090>101-271700-
SOUTHEAST KANSAS

CITY           SKY/WX    TMP DP  RH WIND       PRES   REMARKS
CHANUTE        CLOUDY    80  74  81 MISG      30.00F
COFFEYVILLE    LGT RAIN  80  73  79 CALM      29.98F
HUTCHINSON     CLOUDY    77  72  84 N8        30.02R
MEDICINE LODGE   N/A     80  72  76 NE17G26   29.99S
NEWTON         CLOUDY    78  73  84 E9        30.02R
PARSONS        CLOUDY    82  73  74 CALM      30.01S
WICHITA INTL   PTSUNNY   85  75  72 NE14G21   29.98S
WICHITA JABRA  CLOUDY    84  75  74 NE8       29.98F
WICHITA MCCONL MOSUNNY   83  74  73 E7        29.98S
WINFIELD       MOSUNNY   88  70  55 SW3       29.98F
$$

KSZ007>012-019>026-033>040-048>060-102>105-271700-
NORTHEAST KANSAS

CITY           SKY/WX    TMP DP  RH WIND       PRES   REMARKS
CONCORDIA      CLOUDY    77  70  79 NE9       30.07R
EMPORIA        CLOUDY    78  74  87 NE7       29.99F
LAWRENCE       CLOUDY    78  76  93 NE5       29.98F
MANHATTAN      CLOUDY    80  71  74 N9        30.02R
MARYSVILLE     CLOUDY    79  70  73 NE8       30.05S
OLATHE IND     CLOUDY    80  75  84 N10       29.98F
OLATHE EXE     CLOUDY    80  76  87 N10       29.97F
SALINA         CLOUDY    79  70  74 NE12      30.05R
TOPEKA BILLARD CLOUDY    78  75  90 NE7       29.99S
TOPEKA FORBES  CLOUDY    78  75  90 N8        29.99F
$$




USA.gov is the U.S. government's official web portal to all federal, state and local government web resources and services.